Погода в Медине

Саудовская Аравия     24°27′57″N   39°38′30″E
темп.,
°C
ветер,
м/с
пор.,
м/с
влажн.,
%
обл.,
%
осадки,
мм/ч
давл.,
гПа
погр.,
м
8 марта, пн
пн800:00+24з35250 0.0 101398
03:00+21ююз22300 0.0 101145
06:00+20ю12370 0.0 101233
09:00+25юз12301 0.0 1013454
12:00+30з46200 0.0 10111906
15:00+33зюз98140 0.0 10083102
18:00+29зюз99220 0.0 10091506
21:00+26зюз68300 0.0 1012234
9 марта, вт
вт900:00+24з34340 0.0 1013104
03:00+21св113936 0.0 101242
06:00+20всв234330 0.0 101383
09:00+26в681715 0.0 1015792
12:00+30в43140 0.0 10131826
15:00+32ю13120 0.0 10102988
18:00+32с44120 0.0 1010295
21:00+27зсз34190 0.0 101297
10 марта, ср
ср1000:00+24юз12280 0.0 101374
03:00+22вюв12310 0.0 101339
06:00+21в57240 0.0 1013117
09:00+25всв68160 0.0 1015560
12:00+31в55120 0.0 10121426
15:00+33юв12110 0.0 10093068
18:00+32сз45120 0.0 1009350
21:00+28зюз45170 0.0 101296
11 марта, чт
чт1100:00+24юз23290 0.0 101268
03:00+22з12310 0.0 101145
06:00+20сз01310 0.0 101123
09:00+27ссз12180 0.0 1013373
12:00+32з23130 0.0 10111355
15:00+35з5690 0.0 10082771
18:00+34сз6790 0.0 1008777
21:00+28з58200 0.0 1011174
12 марта, пт
пт1200:00+25зюз34290 0.0 101283
03:00+23зюз22310 0.0 101159
06:00+21з12330 0.0 101143
09:00+28з46160 0.0 1012606
12:00+34зсз101370 0.0 10102850
15:00+34зсз121570 0.0 10073213
18:00+32з811100 0.0 10081270
21:00+24сз472018 0.0 1011246